Location: Haram ta Haram Freeway
(35.0583°N, 51.4202°E)
Time: 02:36:15
(UTC+03:30)

IRIDIUM 33 DEB - Pass Details

Date: 06 December 2021
Orbit: 663 x 816 km, 86.4° (Epoch: 21 January)

Event Time Altitude Azimuth Distance (km) Brightness Sun altitude
Rises 06:11:25 0° 359° (N) 3,101 ? -9.6°
Reaches altitude 10° 06:13:45 10° 1° (N) 2,157 ? -9.1°
Maximum altitude 06:18:31 77° 87° (E) 699 ? -8.2°
Drops below altitude 10° 06:23:07 10° 174° (S) 2,083 ? -7.4°
Sets 06:25:20 0° 176° (S) 2,985 ? -7.0°
